This demonstration page uses our WeatherBlox Daily Observations layout. Learn more.

Left ArrowRight Arrow

34.02893, -84.19858

Hourly Observations for June 19, 2020

Temp ( °F °C ) Dew Point ( °F °C ) Humidity (%) Winds ( mph kmh ) Pressure ( in mb ) Visibility ( mi km ) Precip ( " mm )
12:53 am 00:53 Clear 65 18.3 63 17.2 93 93 Calm 30.05 1018 10 16 0.00 0.00
1:53 am 01:53 Clear 64 17.8 62 16.7 93 93 Calm 30.05 1018 10 16 0.00 0.00
2:53 am 02:53 Clear 63 17.2 62 16.7 97 97 Calm 30.04 1017 10 16 0.00 0.00
3:53 am 03:53 Clear 62 16.7 61 16.1 96 96 Calm 30.04 1017 10 16 0.00 0.00
4:53 am 04:53 Clear 62 16.7 61 16.1 96 96 Calm 30.05 1018 10 16 0.00 0.00
5:53 am 05:53 Mostly Clear 62 16.7 61 16.1 96 96 Calm 30.06 1018 9 14 0.00 0.00
6:53 am 06:53 Sunny 62 16.7 61 16.1 96 96 Calm 30.08 1019 8 13 0.00 0.00
7:53 am 07:53 Partly Cloudy 67 19.4 63 17.2 87 87 Calm 30.09 1019 10 16 0.00 0.00
8:53 am 08:53 Partly Cloudy 71 21.7 65 18.3 81 81 N 3 6 30.10 1019 10 16 0.00 0.00
9:53 am 09:53 Sunny 74 23.3 65 18.3 74 74 Calm 30.10 1019 10 16 0.00 0.00
10:53 am 10:53 Sunny 78 25.6 62 16.7 58 58 Calm 30.10 1019 10 16 0.00 0.00
11:53 am 11:53 Sunny 82 27.8 64 17.8 55 55 S 6 9 30.09 1019 10 16 0.00 0.00
12:53 pm 12:53 Partly Cloudy 83 28.3 61 16.1 48 48 NE 5 7 30.09 1019 10 16 0.00 0.00
1:53 pm 13:53 Partly Cloudy 83 28.3 63 17.2 51 51 NW 3 6 30.06 1018 10 16 0.00 0.00
2:53 pm 14:53 Cloudy 83 28.3 62 16.7 49 49 Calm 30.05 1018 10 16 0.00 0.00
3:53 pm 15:53 Mostly Sunny 83 28.3 62 16.7 49 49 WSW 6 9 30.03 1017 10 16 0.00 0.00
4:53 pm 16:53 Sunny 84 28.9 62 16.7 48 48 WSW 6 9 30.01 1016 10 16 0.00 0.00
5:53 pm 17:53 Mostly Sunny 83 28.3 62 16.7 49 49 WNW 6 9 30.01 1016 10 16 0.00 0.00
6:04 pm 18:04 Mostly Cloudy with Nearby Thunderstorms 81 27.2 63 17.2 54 54 SW 10 17 30.01 1016 10 16 0.00 0.00
6:13 pm 18:13 Windy with Storms Likely 74 23.3 66 18.9 76 76 NNW 23 37 30.03 1017 7 11 0.01 0.25
6:21 pm 18:21 Cloudy with Strong Thunderstorms 68 20 64 17.8 87 87 NNW 32 52 30.05 1018 2 2 0.09 2.29
6:24 pm 18:24 Cloudy with Strong Thunderstorms 67 19.4 63 17.2 87 87 N 23 37 30.06 1018 1 1 0.17 4.32
6:33 pm 18:33 Cloudy with Thunderstorms 67 19.4 61 16.1 81 81 NNE 14 22 30.05 1017 3 5 0.25 6.35
6:36 pm 18:36 Cloudy with Light Rain 68 20 61 16.1 78 78 NE 8 13 30.04 1017 3 5 0.25 6.35
6:53 pm 18:53 Cloudy with Nearby Thunderstorms 68 20 64 17.8 87 87 NNE 6 9 30.04 1017 3 5 0.26 6.60
7:02 pm 19:02 Mostly Cloudy 70 21.1 65 18.3 84 84 N 3 6 30.04 1017 10 16 0.00 0.00
7:53 pm 19:53 Sunny 74 23.3 68 20 82 82 NNE 5 7 30.04 1017 10 16 0.00 0.00
8:53 pm 20:53 Clear 71 21.7 67 19.4 87 87 Calm 30.05 1018 10 16 0.00 0.00
9:53 pm 21:53 Clear 69 20.6 68 20 96 96 Calm 30.05 1018 10 16 0.00 0.00
10:53 pm 22:53 Mostly Clear 68 20 67 19.4 96 96 Calm 30.06 1018 10 16 0.00 0.00
11:53 pm 23:53 Clear with Mist and Fog 67 19.4 66 18.9 97 97 Calm 30.06 1018 4 6 0.00 0.00

Powered by AerisWeather